[Iaude] MPEC J48: 2024 JT [a=1.06,e=0.22,i=4.0,H=28.2]
    mpec at cfa.harvard.edu 
    mpec at cfa.harvard.edu
       
    Fri May  3 13:11:24 EDT 2024
    
    
  
M.P.E.C. 2024-J48                                   Issued 2024 May 3, 17:09 UT
     The Minor Planet Electronic Circulars contain information on unusual
         minor planets, routine data on comets and natural satellites,
         and occasional editorial announcements.  They are published
    on behalf of Division F of the International Astronomical Union by the
          Minor Planet Center, Smithsonian Astrophysical Observatory,
                          Cambridge, MA 02138, U.S.A.
			  
             Prepared using the Tamkin Foundation Computer Network
                              MPC at CFA.HARVARD.EDU
            URL https://www.minorplanetcenter.net/    ISSN 1523-6714
                                    2024 JT                                     
Observations:
     K24J00T*KC2024 05 02.85242 13 01 02.00 +05 48 36.4          19.4 GXEJ048L51
     K24J00T KC2024 05 02.85366 13 01 03.20 +05 47 41.4          19.0 GXEJ048L51
     K24J00T KC2024 05 02.85489 13 01 04.26 +05 46 47.2          19.4 GXEJ048L51
     K24J00T KC2024 05 02.87931 13 01 26.97 +05 28 51.5          20.1 GXEJ048L51
     K24J00T KC2024 05 02.88072 13 01 28.27 +05 27 47.7          19.6 GXEJ048L51
     K24J00T KC2024 05 02.88215 13 01 29.58 +05 26 46.2          19.4 GXEJ048L51
     K24J00T KC2024 05 02.90139713 02 09.45 +05 12 53.8          20.0 GXEJ048I93
     K24J00T KC2024 05 02.90355413 02 11.40 +05 11 20.4          19.6 GXEJ048I93
     K24J00T KC2024 05 02.90566813 02 13.32 +05 09 48.9          20.3 GXEJ048I93
     K24J00T KC2024 05 02.90772613 02 15.15 +05 08 20.5          19.3 GXEJ048I93
     K24J00T KB2024 05 02.90833413 02 16.27 +05 08 04.3          19.3 GXEJ048958
     K24J00T KB2024 05 02.92665813 02 32.68 +04 54 57.8                XEJ048958
     K24J00T KB2024 05 02.92862213 02 34.37 +04 53 35.1          19.3 GXEJ048958
     K24J00T KB2024 05 02.93055113 02 36.09 +04 52 13.0          19.1 GXEJ048958
     K24J00T KB2024 05 03.00598313 04 12.034+04 12 55.26         20.2 VZEJ048Y05
     K24J00T KB2024 05 03.01128213 04 16.133+04 09 17.86         20.3 VZEJ048Y05
     K24J00T KB2024 05 03.01649413 04 20.206+04 05 43.87         19.8 VZEJ048Y05
     K24J00T KC2024 05 03.16136313 06 54.79 +02 18 52.6          19.9 GXEJ048858
     K24J00T KC2024 05 03.16593313 06 58.24 +02 15 59.7          19.8 GXEJ048858
     K24J00T KC2024 05 03.17056613 07 01.71 +02 13 04.5          19.7 GXEJ048858
     K24J00T mC2024 05 03.37270013 09 28.134+00 12 20.12               VEJ048I52
     K24J00T mC2024 05 03.37290513 09 28.264+00 12 13.00         19.79GVEJ048I52
     K24J00T mC2024 05 03.37311013 09 28.444+00 12 05.76         19.55GVEJ048I52
     K24J00T mC2024 05 03.37331513 09 28.588+00 11 59.06         20.01GVEJ048I52
Observer details:
858 Tebbutt Observatory, Edgewood.  Observer F. B. Zoltowski.  0.51-m f/8.1
    Schmidt-Cassegrain + CCD.
958 Observatoire de Dax.  Observer P. Dupouy.  0.50-m f/4.5 Reflector + CMO.
I52 Steward Observatory, Mt. Lemmon Station.  Observer V. F. Carvajal.
    Measurers T. Beuden, V. F. Carvajal, D. Fay, J. B. Fazekas, D. C. Fuls, A.
    R. Gibbs, A. D. Grauer, H. Groeller, J. K. Hogan, R. A. Kowalski, S. M.
    Larson, G. J. Leonard, D. Rankin, R. L. Seaman, F. C. Shelly, K. W.
    Wierzchos.  1.0-m prime focus + CCD.
I93 St Pardon de Conques.  Observer F. Losse.  0.40-m f/3.7 reflector + CCD.
L51 MARGO, Nauchnyi.  Observer G. Borisov.  0.50-m f/1.9 reflector + CCD.
Y05 SONEAR Wykrota-CEAMIG, Serra da Piedade.  Observers C. Jacques, A.
    Caetano, E. Pimentel.  Measurer C. Jacques.  0.45-m f/2.9 reflector + CMO.
Orbital elements:
2024 JT                                                  Earth MOID = 0.0039 AU
Epoch 2024 Mar. 31.0 TT = JDT 2460400.5                 Bell                    
M  36.59053              (2000.0)            P               Q                  
n   0.89793134     Peri.   87.07045     -0.65796495     -0.75148359             
a   1.0640792      Node    44.20299     +0.66031108     -0.60671651             
e   0.2183943      Incl.    3.99087     +0.36203786     -0.25916690             
P   1.10           H   28.27          G   0.15           U   7                  
Residuals in seconds of arc
240502 L51  0.4+  0.1+    240502 I93  0.3+  0.3-    240503 Y05  0.2-  0.0
240502 L51  1.1+  0.0     240502 I93  0.0   0.1-    240503 858  0.0   0.2-
240502 L51  0.2-  0.4+    240502 958  0.8-  0.8+    240503 858  0.2+  0.1-
240502 L51  0.3+  0.6+    240502 958  1.0+  0.3-    240503 858  0.2+  0.1-
240502 L51  0.1+  1.4-    240502 958  0.3+  0.7+    240503 I52  0.0   0.1+
240502 L51  0.1-  0.3-    240502 958  0.6+  0.9+    240503 I52  0.3-  0.0
240502 I93  0.0   0.3+    240503 Y05  0.3-  0.1-    240503 I52  0.2+  0.2-
240502 I93  0.1+  0.0     240503 Y05  0.7-  0.3+    240503 I52  0.1+  0.1+
Ephemeris:
2024 JT                  a,e,i = 1.06, 0.22, 4                   q = 0.8317
Date    TT    R. A. (2000) Decl.     Delta      r    Elong.  Phase     V
2024 04 03    02 11 12.0 +33 14 03   0.1098  0.9106    33.8   142.3    30.4
...
2024 04 18    02 26 56.7 +39 32 38   0.04881 0.9622    30.2   148.3    29.7
...
2024 04 26    03 10 36.4 +51 57 06   0.01914 0.9917    40.1   139.2    26.4
...
2024 05 02    12 39 27.2 +19 02 39   0.0088861.0141   135.0    44.6    19.8
2024 05 03    13 03 51.0 +04 12 26   0.01143 1.0179   148.8    30.9    19.9
2024 05 04    13 18 02.1 -04 50 36   0.01452 1.0216   156.0    23.7    20.2
...
2024 05 10    13 47 52.3 -22 13 37   0.03614 1.0439   160.6    18.8    22.1
...
2024 05 18    13 59 48.1 -27 01 09   0.06730 1.0733   155.9    22.6    23.6
...
2024 06 02    14 14 16.8 -29 10 34   0.1311  1.1258   146.5    29.8    25.4
M. P. C. Staff               (C) Copyright 2024 MPC           M.P.E.C. 2024-J48
    
    
More information about the Iaude
mailing list